Wetbulb
53.29 53.21 53.34 53.68 53.26 53.77 53.86 53.54 53.51 53.34 53.70 54.01 54.20 54.13 54.75 55.01 54.69 49.15 43.91 49.55 53.47 59.45 60.06 49.62 45.51 45.02 46.40 43.81 45.12 44.91 36.43 34.69 37.29 40.60 43.64 46.90 44.54 47.22 49.69 48.30 50.35 52.29 53.90 55.99 56.94
53.19 53.63 53.31 53.14 53.16 53.33 53.02 53.11 53.41 53.36 53.35 53.78 54.14 54.14 54.54 54.75 49.23 45.90 52.97 57.73 62.06 62.02 49.89 44.29 41.10 42.68 40.24 42.09 43.17 41.38 34.58 37.12 42.03 43.00 43.65 44.38 44.45 46.35 46.30 47.17 47.38 50.31 55.50 55.75 55.61
53.20 53.29 53.58 53.28 53.06 53.05 53.17 52.87 52.89 53.08 53.44 52.99 54.14 54.30 54.47 53.89 43.95 50.09 62.31 60.00 62.25 62.49 46.99 45.62 48.65 44.44 37.54 39.44 40.94 39.55 37.49 40.66 43.16 44.89 45.58 44.21 44.83 46.54 44.99 44.92 47.30 47.69 50.46 54.31 54.24
53.05 53.17 53.19 53.33 53.10 52.93 52.80 52.87 52.86 52.93 52.87 52.55 53.02 54.10 54.86 49.41 38.67 48.91 64.88 61.87 63.22 54.21 47.59 49.11 46.31 37.66 35.53 36.53 39.38 37.01 41.67 42.84 42.85 45.08 44.01 43.65 45.99 44.52 45.47 46.70 49.40 50.45 52.11 53.21 53.28
53.11 52.99 52.93 52.95 52.95 52.86 52.65 52.63 52.90 52.84 52.69 52.98 53.05 54.02 48.18 38.01 40.84 51.81 64.29 63.23 54.72 49.63 48.67 48.60 44.49 39.44 35.71 36.12 37.82 35.94 38.62 41.02 42.53 41.60 41.80 43.80 43.00 43.27 43.32 47.43 49.21 49.85 49.83 52.60 53.22
53.47 53.04 52.69 52.75 52.69 52.62 52.54 52.45 52.58 52.76 53.14 53.40 53.23 54.14 45.44 32.15 41.50 53.37 57.60 52.48 50.68 48.96 49.95 48.63 45.15 44.37 39.51 37.36 36.83 39.39 39.40 40.76 41.54 41.44 40.98 40.61 42.03 42.12 43.98 46.77 47.46 47.77 48.01 49.00 51.54
54.33 53.32 52.68 52.47 52.93 52.70 52.41 52.22 52.72 53.42 53.41 53.79 53.84 52.87 44.25 38.03 50.12 53.13 52.94 49.14 50.22 49.97 48.67 49.77 48.40 43.20 41.38 38.36 39.78 39.39 36.04 38.95 39.62 41.27 40.61 40.81 39.94 40.37 44.50 45.38 45.59 46.05 46.88 47.50 48.07
54.57 54.36 53.38 53.18 52.87 53.39 53.22 53.44 53.63 53.69 53.89 54.41 54.51 48.63 38.68 47.30 49.98 48.56 51.00 49.27 50.46 50.35 49.63 50.13 46.84 41.96 39.47 39.61 39.25 35.32 33.68 30.48 37.27 39.52 41.91 41.02 35.64 42.41 44.08 42.88 43.30 44.40 45.09 46.35 47.54
54.79 54.32 53.85 53.28 53.15 53.46 53.48 53.47 54.06 54.78 55.03 55.44 47.12 42.83 40.76 54.00 51.37 53.73 51.52 48.26 49.91 50.54 49.82 52.84 44.40 39.73 39.70 34.53 31.79 32.14 27.61 29.46 35.54 39.52 39.38 38.74 35.12 41.92 43.68 43.11 42.41 42.83 43.51 44.37 44.99
54.65 54.16 54.08 53.59 53.36 52.95 52.80 53.75 54.68 54.90 55.34 53.74 51.81 41.54 45.42 47.54 52.79 52.56 50.27 50.49 48.65 47.99 44.98 43.15 38.79 35.75 33.04 32.26 26.55 28.91 29.77 32.59 33.28 38.17 37.53 36.43 36.15 40.00 42.32 41.01 41.78 42.02 42.84 43.15 43.68
54.73 54.24 53.96 53.96 53.38 52.77 49.04 47.19 44.20 42.64 47.55 44.25 44.70 43.17 47.59 52.27 54.58 48.47 50.67 48.83 47.70 43.67 36.91 38.75 34.72 32.01 34.76 35.55 36.54 35.06 33.22 32.52 36.23 40.48 36.84 36.40 36.50 38.65 40.95 40.37 40.74 41.85 42.54 43.22 43.80
54.43 54.24 54.22 53.88 53.52 52.32 46.33 43.52 46.82 46.93 41.53 48.17 48.70 47.31 49.98 51.29 46.98 49.94 49.54 44.12 41.84 37.29 38.22 35.77 32.54 37.88 39.00 38.21 36.74 35.39 32.73 32.43 36.57 39.46 36.46 35.97 35.51 38.29 39.34 40.48 41.57 42.29 42.54 43.28 43.65
53.57 53.61 53.93 53.63 52.85 48.46 45.64 48.24 50.63 47.85 40.23 44.18 47.84 47.28 47.50 49.23 45.66 47.37 46.44 43.62 40.28 36.76 36.43 33.90 37.96 41.30 39.33 37.51 36.31 34.86 32.88 33.50 34.72 37.96 36.96 35.27 33.37 36.56 40.16 40.32 42.19 42.59 43.08 43.22 43.54
52.95 53.12 53.40 52.16 47.89 48.23 46.06 51.83 50.96 48.57 35.86 39.79 44.01 47.45 48.93 48.55 44.94 51.74 49.08 45.03 39.97 37.97 37.32 36.13 40.18 39.64 36.93 36.31 36.93 32.08 38.11 38.34 36.67 33.22 28.42 34.87 28.94 33.00 36.88 38.64 40.34 41.72 41.19 41.96 42.91
52.79 53.10 53.02 51.40 43.25 43.35 49.36 50.39 50.16 48.60 28.90 44.41 44.54 51.35 48.93 46.15 45.51 46.09 49.34 45.23 40.12 39.17 38.18 36.50 36.70 36.00 35.80 37.54 39.08 35.93 39.72 37.55 36.75 32.23 28.07 30.84 25.69 30.92 35.10 35.63 38.41 40.52 41.50 41.97 42.97
52.70 53.05 52.58 47.89 44.74 46.19 49.19 49.12 49.56 38.78 29.58 44.01 45.16 43.73 44.32 45.29 44.61 44.74 45.17 46.59 44.97 39.32 38.22 38.72 40.59 39.86 39.02 40.85 40.31 41.07 36.75 34.51 30.71 28.51 23.07 30.33 28.55 29.42 32.48 35.96 38.70 41.87 42.73 43.67 44.36
52.23 52.04 50.59 48.36 43.32 45.82 46.25 46.36 35.47 32.61 43.98 41.16 41.27 43.91 42.09 41.44 42.27 42.08 40.53 38.90 36.72 31.27 31.53 36.93 38.92 40.64 41.89 37.58 38.55 36.52 31.21 24.20 23.06 22.96 25.53 32.29 29.36 30.42 36.21 40.15 40.97 40.97 42.94 44.43 44.52
50.79 50.12 48.73 48.28 45.86 45.80 46.59 40.66 30.23 39.03 41.63 45.74 44.19 43.14 40.60 42.31 41.69 41.85 39.29 36.32 38.39 35.96 32.65 31.00 31.12 39.62 43.25 39.00 36.36 34.88 33.28 26.51 21.20 22.23 27.03 31.87 26.36 31.99 39.60 41.87 42.65 43.61 43.07 43.95 43.84
49.25 44.92 43.53 47.38 47.99 45.65 42.95 32.70 33.03 40.59 43.39 42.38 43.07 38.36 38.67 41.17 40.48 40.12 38.74 38.41 39.50 37.99 32.45 30.32 32.19 41.46 43.26 43.87 41.29 35.04 30.49 34.68 28.65 28.25 20.74 27.68 32.07 37.83 40.22 40.65 41.37 40.77 41.51 41.36 42.21
44.68 41.03 44.03 48.15 47.58 46.42 37.38 34.02 39.93 44.47 45.00 43.73 37.41 39.88 35.58 37.68 38.12 38.12 37.62 42.07 41.64 41.97 39.69 35.86 29.61 38.66 41.32 42.41 41.61 38.28 39.33 30.85 29.42 24.16 22.77 25.65 28.10 29.82 35.36 37.02 38.54 38.54 39.22 41.25 42.34
41.16 40.11 45.86 47.56 48.31 42.83 35.20 37.05 41.39 46.19 45.99 41.85 39.29 38.29 38.40 37.11 37.69 36.74 37.84 41.23 42.94 41.60 40.38 37.14 33.30 33.75 38.53 36.42 35.31 34.50 32.81 34.37 33.50 32.49 24.16 21.04 25.40 35.22 35.96 36.57 35.82 36.80 39.35 39.39 41.24
40.42 37.30 47.32 48.20 41.03 37.60 35.05 39.60 43.00 44.40 46.95 43.97 43.31 41.22 38.38 38.70 37.08 37.17 37.46 40.94 43.28 41.86 36.24 37.86 34.48 28.55 32.99 38.22 39.25 36.51 34.37 33.82 28.61 25.10 28.18 27.28 26.89 38.91 37.04 36.63 36.27 37.52 39.94 42.28 43.56
37.39 37.35 45.07 46.12 35.70 34.25 37.97 40.47 41.97 42.08 43.12 42.78 41.06 41.67 41.30 37.55 34.47 38.33 39.92 43.76 42.83 41.06 38.72 37.85 29.92 25.84 28.00 32.66 35.10 33.09 35.26 34.15 31.39 28.84 25.84 25.30 26.40 36.64 36.56 36.61 39.68 39.58 41.24 42.88 44.43
38.27 34.68 38.56 39.05 38.37 37.70 36.60 36.86 37.59 43.62 43.06 43.22 41.51 42.08 39.53 37.65 39.40 35.91 37.25 41.54 43.22 41.93 46.97 41.91 33.13 29.62 26.52 29.84 32.69 31.89 34.22 34.27 31.31 26.03 27.78 27.67 30.42 35.07 35.04 37.29 39.56 40.42 41.45 42.28 43.47
39.69 37.71 38.56 32.31 36.13 36.96 38.53 38.42 36.29 37.17 42.58 42.49 39.22 39.86 38.13 35.59 35.53 35.33 38.15 39.15 41.71 43.27 40.75 36.10 28.63 31.26 32.59 34.85 34.00 32.76 33.48 34.01 29.91 31.76 26.86 30.51 28.54 33.39 36.79 38.68 39.90 41.22 41.61 41.65 42.69
37.59 36.16 37.66 36.87 39.18 37.79 38.01 37.49 36.28 38.17 40.21 38.13 37.01 38.96 39.55 36.51 37.18 35.75 37.87 37.27 34.55 37.99 35.34 31.92 26.66 28.32 28.20 33.11 31.74 28.90 31.64 32.90 32.93 32.63 31.01 31.01 30.48 37.71 40.44 40.73 40.49 40.21 40.20 39.80 40.75
43.90 42.49 39.31 36.50 37.85 36.81 37.04 37.74 38.02 40.16 40.23 40.97 40.18 36.98 36.15 38.73 41.23 40.04 39.15 38.41 37.42 33.80 31.50 29.16 27.37 24.81 23.10 29.74 29.58 25.83 30.04 30.78 31.72 34.82 33.64 30.32 33.46 37.63 38.27 39.29 38.57 38.85 39.53 39.36 41.20
MSLP
1017.55 1017.28 1016.99 1016.75 1016.59 1016.41 1016.23 1016.09 1015.93 1015.76 1015.56 1015.34 1015.09 1014.88 1014.53 1014.36 1014.07 1013.86 1012.93 1010.52 1010.52 1010.20 1010.04 1010.26 1010.44 1010.60 1010.79 1010.99 1011.19 1011.98 1013.18 1013.24 1012.71 1012.16 1010.58 1009.91 1009.74 1009.11 1008.58 1008.23 1008.15 1007.24 1006.95 1006.19 1006.06
1017.34 1017.05 1016.81 1016.64 1016.48 1016.28 1016.12 1015.97 1015.78 1015.60 1015.41 1015.18 1014.94 1014.76 1014.55 1014.30 1014.08 1012.89 1009.83 1009.73 1009.75 1009.85 1010.19 1010.36 1010.47 1010.57 1011.00 1011.15 1011.33 1011.77 1012.84 1012.66 1012.06 1011.31 1010.46 1010.46 1010.08 1009.24 1008.94 1008.52 1007.78 1007.60 1006.68 1006.26 1006.34
1017.17 1016.77 1016.52 1016.34 1016.14 1015.98 1015.80 1015.64 1015.51 1015.38 1015.17 1015.11 1014.80 1014.61 1014.45 1014.36 1013.73 1010.11 1008.76 1009.48 1009.89 1010.13 1010.25 1010.30 1010.34 1010.50 1011.11 1011.30 1011.54 1011.99 1012.22 1011.75 1011.23 1010.89 1010.43 1010.26 1009.64 1009.23 1008.84 1008.58 1007.98 1007.72 1007.48 1006.97 1006.94
1017.13 1016.74 1016.39 1016.09 1015.88 1015.65 1015.46 1015.28 1015.10 1014.98 1014.91 1014.84 1014.68 1014.45 1014.18 1014.16 1012.17 1009.17 1008.57 1009.30 1009.83 1010.18 1010.37 1010.38 1010.56 1010.95 1011.34 1011.49 1011.48 1011.83 1011.44 1011.21 1010.76 1010.39 1010.35 1009.97 1009.39 1008.94 1008.94 1008.48 1007.65 1007.31 1007.22 1007.36 1007.20
1017.06 1016.66 1016.31 1015.96 1015.57 1015.32 1015.10 1014.92 1014.84 1014.76 1014.69 1014.56 1014.44 1014.28 1014.04 1013.24 1010.70 1009.05 1009.00 1009.39 1009.90 1010.21 1010.30 1010.34 1010.42 1010.69 1010.90 1011.12 1011.16 1011.30 1011.17 1010.92 1010.48 1010.36 1010.01 1009.40 1009.24 1008.65 1008.07 1007.90 1007.14 1006.91 1007.01 1007.08 1007.02
1016.86 1016.51 1016.13 1015.72 1015.36 1015.04 1014.80 1014.64 1014.51 1014.39 1014.28 1014.15 1014.10 1014.00 1013.75 1012.03 1009.08 1008.94 1009.26 1009.66 1009.80 1010.02 1010.15 1010.22 1010.11 1010.16 1010.54 1010.90 1011.08 1011.13 1011.13 1010.91 1010.43 1010.03 1009.76 1009.40 1008.74 1008.63 1007.96 1007.23 1007.02 1006.76 1006.65 1006.79 1006.82
1016.72 1016.26 1015.90 1015.53 1015.08 1014.78 1014.60 1014.45 1014.32 1014.20 1014.03 1013.88 1013.84 1013.74 1013.10 1010.30 1008.99 1009.22 1009.38 1009.50 1009.60 1009.75 1009.86 1009.78 1009.78 1010.01 1010.54 1010.92 1011.06 1011.20 1011.38 1010.97 1010.44 1009.65 1009.28 1008.92 1008.59 1008.28 1007.70 1007.36 1007.15 1006.89 1006.66 1006.67 1006.83
1016.60 1016.15 1015.74 1015.29 1014.96 1014.61 1014.35 1014.20 1014.03 1013.91 1013.80 1013.65 1013.68 1013.70 1011.86 1009.20 1009.08 1009.08 1009.25 1009.32 1009.38 1009.46 1009.56 1009.44 1009.60 1010.07 1010.42 1010.90 1011.40 1011.73 1011.96 1011.58 1010.18 1009.59 1008.95 1009.09 1008.78 1007.82 1007.48 1007.68 1007.74 1007.43 1007.23 1006.69 1006.04
1016.40 1015.93 1015.49 1015.06 1014.69 1014.40 1014.13 1013.87 1013.67 1013.60 1013.54 1013.53 1013.77 1013.38 1010.88 1008.85 1008.81 1008.21 1008.56 1008.85 1008.92 1009.10 1009.18 1009.34 1009.57 1010.59 1011.08 1011.76 1012.48 1012.78 1012.64 1012.06 1010.94 1009.71 1009.52 1009.36 1009.34 1008.21 1007.72 1007.81 1007.94 1007.84 1007.61 1007.41 1006.69
1016.32 1015.70 1015.20 1014.82 1014.42 1014.07 1013.72 1013.20 1013.08 1013.38 1013.62 1013.71 1013.32 1013.21 1010.26 1008.52 1007.84 1007.87 1008.20 1008.65 1008.93 1009.13 1009.24 1009.64 1010.48 1011.28 1012.15 1012.67 1013.13 1013.11 1012.90 1012.29 1011.64 1010.30 1009.97 1009.92 1009.84 1009.11 1008.47 1008.30 1008.06 1007.91 1007.57 1007.42 1007.04
1016.12 1015.54 1015.00 1014.51 1014.15 1013.93 1013.77 1013.51 1013.51 1013.33 1012.96 1011.59 1010.91 1010.24 1008.92 1007.84 1007.25 1007.63 1007.99 1008.67 1009.15 1009.56 1010.11 1010.52 1011.20 1011.66 1011.89 1012.31 1012.34 1012.58 1012.62 1012.35 1011.28 1010.04 1010.43 1009.92 1009.72 1009.14 1008.49 1008.42 1008.11 1007.88 1007.58 1007.06 1006.72
1015.89 1015.23 1014.59 1014.11 1013.66 1013.51 1013.85 1013.11 1011.78 1011.66 1011.26 1009.82 1009.28 1009.16 1008.46 1008.11 1008.08 1007.59 1007.68 1008.74 1009.37 1009.98 1010.44 1011.22 1011.19 1010.90 1011.27 1011.66 1012.08 1012.29 1012.33 1011.89 1010.94 1009.85 1010.31 1009.68 1009.44 1008.93 1008.67 1008.11 1007.52 1007.43 1007.37 1007.07 1006.70
1015.64 1014.94 1014.21 1013.50 1013.17 1013.40 1012.92 1011.79 1011.00 1011.28 1011.32 1008.83 1008.35 1008.08 1007.82 1008.09 1008.18 1007.47 1007.63 1008.18 1009.00 1009.95 1010.51 1011.06 1010.14 1010.14 1010.82 1011.15 1011.62 1011.55 1011.78 1011.40 1011.04 1010.08 1009.82 1009.69 1009.38 1008.80 1008.03 1007.60 1007.18 1007.07 1006.87 1006.77 1006.70
1015.49 1014.84 1014.16 1013.22 1013.10 1012.82 1012.00 1010.85 1010.79 1011.09 1010.68 1008.48 1007.56 1006.94 1007.13 1007.24 1007.43 1006.70 1006.98 1007.83 1008.68 1009.39 1010.44 1010.56 1009.44 1009.81 1010.22 1010.46 1010.60 1010.80 1010.20 1010.56 1010.84 1011.01 1010.86 1010.12 1009.20 1008.74 1007.96 1007.54 1007.18 1006.70 1006.72 1006.52 1006.31
1015.44 1014.56 1014.14 1013.83 1013.40 1012.67 1011.08 1010.68 1010.53 1010.96 1009.83 1007.22 1006.57 1005.99 1006.53 1006.77 1006.41 1006.29 1006.48 1007.22 1008.02 1009.02 1009.85 1009.34 1009.07 1009.30 1009.46 1009.10 1009.60 1009.79 1009.58 1010.27 1010.72 1011.11 1011.21 1010.67 1010.45 1008.54 1007.96 1007.62 1007.10 1006.54 1006.44 1006.39 1006.38
1015.02 1014.30 1013.81 1013.58 1013.46 1011.52 1010.71 1010.48 1010.52 1011.04 1008.52 1006.54 1006.18 1006.18 1006.80 1006.50 1006.18 1006.19 1006.57 1006.89 1007.47 1008.82 1009.21 1008.90 1008.60 1008.61 1008.21 1008.20 1008.60 1008.94 1009.64 1010.48 1011.15 1011.75 1011.84 1010.82 1010.36 1008.94 1008.31 1007.20 1006.78 1006.50 1006.61 1006.65 1006.41
1014.62 1013.31 1013.41 1012.79 1011.80 1010.98 1010.82 1010.78 1011.13 1010.17 1007.74 1007.03 1006.54 1006.38 1006.27 1006.44 1006.34 1006.35 1006.71 1007.31 1007.91 1008.84 1009.04 1008.69 1008.32 1007.88 1007.82 1008.17 1008.31 1008.93 1010.18 1011.66 1012.12 1012.53 1011.69 1010.88 1010.52 1009.06 1007.85 1007.01 1006.92 1007.10 1006.84 1006.68 1006.43
1014.12 1012.62 1011.85 1011.58 1011.10 1011.17 1011.08 1011.38 1011.05 1009.08 1008.18 1007.69 1007.07 1006.72 1006.65 1006.58 1006.72 1006.75 1006.98 1007.44 1007.68 1008.45 1008.91 1009.07 1008.39 1007.44 1007.08 1007.43 1007.90 1008.79 1010.01 1011.63 1011.96 1012.62 1012.00 1011.38 1010.21 1008.45 1007.38 1007.06 1007.02 1007.11 1007.18 1007.06 1006.59
1013.62 1012.22 1011.85 1010.98 1010.77 1011.44 1011.64 1011.64 1010.41 1009.47 1008.90 1008.42 1007.80 1007.52 1007.57 1007.34 1007.48 1007.41 1007.45 1007.56 1007.69 1008.14 1008.82 1009.06 1008.51 1007.46 1007.00 1007.10 1007.75 1008.79 1009.93 1010.49 1011.78 1012.39 1012.46 1011.41 1009.88 1008.54 1007.67 1007.28 1007.45 1007.44 1007.34 1007.37 1007.12
1014.34 1013.30 1011.77 1010.77 1010.84 1011.23 1011.70 1011.36 1010.51 1009.77 1009.17 1008.70 1009.05 1008.60 1008.63 1008.40 1008.52 1008.68 1008.20 1007.88 1007.98 1008.18 1008.37 1008.93 1008.95 1008.18 1007.62 1007.46 1007.92 1008.48 1009.44 1011.04 1012.40 1013.11 1012.58 1011.30 1010.52 1009.13 1008.18 1008.03 1007.92 1008.06 1007.96 1007.62 1006.99
1014.59 1013.39 1011.56 1011.01 1010.88 1011.64 1012.30 1011.70 1010.76 1010.04 1010.04 1010.08 1011.00 1010.70 1010.32 1010.01 1009.56 1009.09 1008.56 1008.31 1008.41 1008.50 1008.69 1008.99 1009.48 1009.25 1008.81 1008.37 1008.56 1009.28 1009.99 1011.33 1012.46 1013.25 1013.18 1012.01 1010.29 1008.89 1008.71 1008.70 1008.80 1008.90 1008.43 1008.07 1007.38
1015.40 1014.12 1011.88 1011.22 1012.17 1013.08 1013.04 1012.36 1011.44 1010.67 1010.58 1011.04 1011.80 1012.34 1011.78 1011.42 1010.71 1010.30 1009.42 1009.05 1008.82 1008.76 1009.10 1009.53 1009.98 1010.21 1009.73 1009.10 1009.27 1009.55 1010.11 1011.03 1012.21 1013.22 1013.18 1012.41 1009.87 1008.74 1008.54 1008.68 1008.90 1008.75 1008.49 1007.89 1007.38
1016.85 1015.81 1012.68 1012.32 1013.74 1014.38 1014.05 1013.13 1012.28 1011.70 1011.34 1011.82 1012.19 1012.79 1013.06 1012.48 1012.14 1011.12 1010.50 1009.64 1009.36 1009.24 1009.60 1009.95 1010.51 1011.00 1010.59 1010.10 1009.82 1009.96 1010.48 1011.11 1011.91 1012.64 1012.64 1012.32 1009.65 1008.76 1008.77 1008.80 1008.85 1008.86 1008.48 1007.93 1007.24
1017.43 1016.84 1015.70 1015.07 1015.66 1015.75 1015.45 1014.42 1013.54 1012.80 1012.32 1012.71 1012.91 1013.40 1013.64 1013.25 1012.89 1012.30 1011.18 1010.77 1010.10 1009.88 1010.09 1010.37 1010.80 1011.27 1011.02 1010.52 1010.43 1010.50 1010.53 1010.83 1011.46 1012.10 1011.61 1011.04 1009.00 1008.57 1008.92 1009.16 1009.20 1008.90 1008.47 1007.84 1007.16
1017.91 1018.42 1018.15 1017.68 1017.10 1017.02 1016.44 1015.56 1014.76 1014.14 1013.57 1013.33 1013.46 1013.64 1013.92 1013.77 1013.22 1012.78 1012.00 1011.15 1010.53 1010.27 1010.25 1010.84 1011.28 1011.49 1011.14 1010.73 1010.54 1010.26 1010.23 1010.42 1010.80 1010.60 1011.06 1009.54 1009.69 1008.79 1009.02 1009.14 1008.99 1008.78 1008.41 1007.85 1007.13
1018.54 1018.80 1018.48 1018.29 1017.58 1017.02 1016.55 1015.83 1015.24 1014.68 1014.38 1014.11 1014.12 1014.28 1014.16 1013.86 1013.62 1013.10 1012.84 1012.40 1011.56 1010.61 1010.81 1011.40 1011.69 1011.97 1011.65 1011.11 1010.57 1010.18 1009.70 1009.76 1009.84 1009.88 1009.86 1009.65 1008.92 1008.59 1008.88 1009.06 1008.98 1008.65 1008.26 1007.74 1007.22
1018.58 1018.68 1018.68 1018.56 1017.82 1017.23 1016.52 1016.07 1015.60 1015.36 1014.94 1014.67 1014.39 1014.56 1014.26 1013.76 1013.60 1013.03 1012.64 1011.87 1011.55 1011.30 1011.54 1012.06 1012.38 1012.91 1012.26 1011.52 1010.96 1010.04 1008.78 1008.88 1009.04 1008.98 1009.14 1009.20 1008.93 1008.90 1008.90 1009.00 1009.02 1008.64 1008.18 1007.66 1007.05
Wind_Speed
14 13 13 12 11 11 10 10 10 10 10 11 10 11 12 13 13 1 7 11 6 8 4 2 2 3 3 3 3 3 4 4 4 5 6 4 5 2 3 6 1 4 6 8 2
15 13 13 12 12 11 10 10 10 10 10 10 10 10 11 11 4 6 13 9 9 9 3 2 2 4 3 2 1 5 4 9 6 5 8 4 3 7 2 8 4 5 7 5 6
16 14 14 13 12 11 11 10 10 9 9 9 10 10 10 8 3 6 6 11 10 6 2 3 3 4 3 2 2 3 5 5 5 6 7 4 6 4 3 9 9 8 2 7 2
17 16 15 13 13 12 11 11 10 9 9 8 10 11 12 2 3 3 3 13 9 6 3 3 3 4 5 5 4 3 6 4 3 5 5 5 6 5 7 11 9 10 7 7 9
18 17 16 14 13 12 11 10 10 9 8 8 8 8 4 2 9 2 12 12 7 5 3 3 2 4 3 3 2 3 3 3 7 8 7 6 9 10 5 11 13 13 5 10 9
19 18 16 15 13 12 11 11 10 9 9 8 6 4 1 3 2 1 9 7 6 4 4 5 5 5 3 1 3 5 3 5 6 7 6 5 7 6 5 4 9 8 9 8 9
17 19 17 15 14 12 12 11 10 10 8 6 4 2 1 13 2 4 6 5 6 4 3 3 3 2 5 2 2 0 3 6 5 6 6 5 8 6 7 6 9 10 10 8 9
20 17 17 15 14 13 12 12 11 9 6 4 3 1 8 4 2 1 5 2 4 5 2 4 3 1 2 2 7 3 4 2 6 3 7 7 8 11 4 2 8 10 9 12 14
20 18 18 16 14 13 12 13 12 8 4 5 2 1 10 6 3 5 6 4 5 4 4 3 2 2 5 5 5 7 3 2 9 5 3 4 4 6 5 7 9 7 8 8 11
18 19 18 17 16 14 15 11 3 7 4 5 4 2 5 3 3 4 4 4 3 3 5 4 5 3 4 5 4 2 2 4 6 6 0 6 9 10 11 4 9 9 9 7 9
21 18 18 17 16 10 8 1 3 0 3 9 6 4 4 5 2 3 5 6 3 2 3 3 3 7 9 7 5 2 3 6 9 15 2 9 8 12 10 7 9 8 8 9 7
24 22 19 17 13 11 1 1 2 3 9 13 14 7 7 4 5 1 7 6 5 6 3 4 7 10 5 4 5 5 5 8 9 11 6 9 9 9 6 8 8 8 8 9 8
24 23 22 20 15 4 3 5 3 2 2 7 5 5 6 10 6 6 9 5 5 5 6 7 10 6 6 4 4 5 5 6 10 6 3 5 6 6 7 4 5 7 9 7 8
24 23 22 25 2 2 4 2 2 5 3 7 4 4 5 7 4 9 8 7 2 10 8 6 6 8 4 6 8 5 8 9 6 2 6 3 12 4 6 9 6 10 8 9 10
24 23 18 8 4 2 0 4 1 2 5 1 2 5 4 7 1 2 4 3 9 7 7 10 3 3 5 10 7 10 3 6 6 5 2 5 3 4 1 6 10 9 8 9 9
26 23 18 1 2 8 7 5 3 3 6 3 4 5 5 3 2 4 4 3 3 6 4 9 2 6 8 5 7 3 2 3 4 3 2 8 6 1 5 7 4 5 7 8 9
28 29 17 3 4 2 5 3 4 3 4 2 3 1 4 5 3 3 4 6 6 3 5 5 13 6 5 6 1 4 6 4 5 2 9 3 2 9 6 8 2 7 9 8 9
30 32 4 4 1 5 3 5 3 3 2 5 4 6 2 1 1 1 3 1 2 3 2 4 9 7 5 7 7 6 8 6 7 6 12 3 7 8 7 4 5 1 6 8 10
28 4 3 4 5 1 5 2 5 3 5 6 7 1 2 3 4 3 1 2 4 5 5 3 5 4 1 2 6 3 4 4 1 2 1 6 7 6 2 1 7 10 7 9 9
7 4 4 5 4 3 5 4 2 4 6 6 4 3 3 2 4 3 3 2 2 1 2 3 3 3 8 2 2 5 4 1 2 6 8 4 4 6 6 5 10 13 13 12 11
2 3 4 7 2 6 3 4 3 7 10 7 8 12 10 6 3 3 3 2 2 1 4 4 4 4 1 3 5 2 1 4 2 4 4 4 5 6 5 6 8 9 10 10 12
4 3 5 5 5 2 1 6 5 4 4 4 4 8 4 5 4 3 4 3 4 1 0 1 3 5 11 5 2 2 6 7 5 5 4 3 7 6 8 8 5 8 8 9 10
3 3 5 3 3 3 6 5 4 8 1 2 4 5 8 5 2 8 7 2 2 2 2 0 2 3 7 4 2 3 4 3 4 3 7 4 8 4 4 7 5 7 8 8 12
3 5 6 6 4 5 5 4 6 11 5 4 2 1 6 5 4 7 5 6 4 6 9 4 6 8 9 7 2 8 8 6 5 3 8 12 22 18 10 6 7 8 8 9 9
4 1 1 4 3 4 3 4 8 8 5 1 3 6 6 5 4 9 10 6 10 11 5 5 7 5 8 11 7 7 11 11 9 12 9 17 12 16 4 5 7 6 7 12 13
2 3 4 2 6 5 1 2 8 10 4 5 5 9 7 5 5 6 10 8 9 5 7 1 5 3 6 12 13 14 15 13 14 14 11 13 18 4 3 4 5 9 12 15 12
1 2 3 4 4 3 2 4 9 11 6 10 9 7 10 12 12 12 13 17 16 9 5 5 5 3 6 3 5 7 12 9 6 6 7 7 4 1 4 5 5 10 13 13 14
Wind_Direction
332 326 321 321 317 312 312 310 311 310 311 312 312 312 315 318 321 323 241 218 205 212 133 320 144 136 85 106 119 123 76 198 227 200 241 334 2 232 308 278 20 268 268 244 68
334 328 323 317 313 310 307 307 308 308 306 309 309 309 311 321 304 255 243 214 205 140 117 144 126 125 60 88 89 108 134 219 201 215 265 264 248 293 315 303 284 305 328 17 32
339 333 326 319 313 310 308 305 306 306 308 307 310 310 311 314 287 249 198 199 195 175 110 148 106 104 104 131 176 147 208 209 221 234 261 247 287 238 233 279 251 266 269 280 223
341 337 328 321 314 307 305 306 304 305 307 307 310 312 311 183 168 11 139 163 169 144 95 117 99 100 130 180 173 164 238 199 263 238 266 239 260 272 199 246 254 256 216 229 238
345 339 332 323 315 310 306 304 301 302 300 302 305 311 334 263 249 307 128 135 119 122 149 151 129 128 161 187 138 169 254 283 260 277 252 268 244 249 260 261 263 267 253 232 225
348 343 337 328 319 312 305 303 301 296 296 300 296 308 295 275 261 210 127 129 142 143 182 179 179 198 135 138 144 193 258 272 288 258 244 237 260 143 283 265 274 279 271 224 242
343 347 342 333 324 315 305 294 291 293 292 291 281 272 59 237 73 9 156 170 175 176 172 226 158 141 137 324 162 240 309 329 238 249 250 157 296 222 253 276 276 287 292 280 233
340 339 343 335 328 316 305 296 291 284 274 263 218 271 250 240 254 193 161 238 199 214 226 263 218 73 132 114 22 43 49 323 273 240 260 135 277 293 283 205 275 282 283 286 279
339 338 335 334 329 321 312 295 284 265 228 160 109 145 271 322 269 202 158 192 166 208 234 223 94 97 39 77 13 7 243 253 307 237 258 146 286 274 315 329 309 298 284 277 281
338 333 329 328 328 327 320 308 126 139 158 181 255 316 271 222 199 188 187 102 60 7 17 68 58 85 46 82 224 190 266 250 248 284 112 300 247 271 285 302 283 294 300 294 274
335 334 329 323 325 328 340 32 24 315 220 205 189 243 286 273 234 207 143 101 68 79 214 23 92 218 221 199 200 237 235 251 263 274 211 247 248 256 261 292 281 275 297 305 298
334 334 334 324 318 312 151 204 211 200 295 234 247 250 263 42 346 248 120 136 137 193 110 24 245 227 202 184 207 228 260 271 278 266 151 268 259 257 247 241 219 239 279 281 299
331 332 332 329 327 129 197 229 117 99 261 290 193 198 204 148 217 252 150 151 165 171 185 179 235 111 171 199 210 238 195 239 231 312 284 286 284 248 257 240 268 256 243 274 261
328 332 334 330 98 319 253 158 273 178 357 274 240 258 132 136 231 204 184 142 191 199 157 223 255 217 192 242 173 254 208 247 261 316 262 124 287 246 252 257 254 269 268 262 281
325 326 329 324 291 225 212 334 118 86 325 160 168 153 166 160 263 222 156 103 195 179 128 237 217 160 198 228 138 228 222 221 243 237 48 288 291 261 192 268 262 262 279 282 289
322 320 331 104 207 246 320 319 78 24 254 0 117 160 149 233 278 125 149 97 157 162 252 239 222 182 220 261 177 224 264 51 60 105 209 234 211 157 211 230 296 301 324 314 312
319 316 320 226 230 327 323 56 54 197 314 38 7 14 210 199 227 147 173 176 190 139 239 287 251 250 190 268 232 116 73 314 318 305 256 238 247 231 246 267 276 308 306 319 318
321 311 254 220 276 352 44 62 187 260 308 7 353 319 276 18 41 113 130 189 197 167 126 206 289 191 172 190 193 186 159 175 249 256 284 232 252 245 225 269 274 266 278 314 319
322 322 309 273 195 104 79 101 216 10 14 331 313 329 357 12 357 355 269 239 196 165 173 199 264 317 127 217 133 218 174 197 256 235 25 218 292 303 267 327 340 328 335 316 312
315 329 308 346 132 66 81 235 283 359 350 5 8 4 327 189 185 230 237 157 111 136 119 233 279 270 301 184 141 176 168 148 27 303 266 243 239 231 288 325 335 331 320 316 309
354 25 284 336 77 51 150 245 297 57 47 58 340 336 349 342 290 262 244 59 34 181 208 189 177 268 256 234 224 305 255 55 134 147 259 306 249 223 211 257 274 291 292 293 307
346 51 322 358 50 33 65 325 327 350 88 100 62 330 271 280 291 230 263 320 340 268 62 359 183 218 232 250 303 267 220 170 184 226 229 251 252 247 270 287 300 283 295 306 307
12 287 319 36 63 2 334 323 326 11 52 143 194 119 306 304 296 301 242 154 281 82 179 313 266 327 321 326 332 206 191 149 114 102 193 237 261 215 288 324 316 311 310 311 317
32 7 337 25 27 16 9 321 325 340 356 116 218 345 291 273 335 277 274 284 351 320 283 204 196 203 239 243 224 266 244 200 162 183 256 239 281 284 294 307 312 308 309 310 307
30 36 118 344 344 347 296 300 300 297 304 238 239 196 197 247 264 239 259 320 308 283 222 183 215 229 255 260 231 230 245 248 206 248 221 271 253 277 250 277 281 286 306 321 320
85 34 360 297 303 329 306 270 300 295 258 280 283 298 279 246 225 279 278 262 267 271 182 183 231 219 268 264 247 255 255 242 244 252 253 258 270 203 257 289 301 317 326 317 314
24 24 119 288 299 296 249 316 322 332 274 260 267 310 286 266 272 280 283 267 250 251 229 190 169 105 264 307 315 274 241 221 226 215 220 235 261 276 273 300 309 308 307 303 307